TimeCST,TemperatureF,Dew PointF,Humidity,Sea Level PressureIn,VisibilityMPH,Wind Direction,Wind SpeedMPH,Gust SpeedMPH,PrecipitationIn,Events,Conditions,WindDirDegrees,DateUTC
12:15 AM,64.4,59.9,85,29.86,10.0,SSE,15.0,20.7,N/A,,Clear,160,2013-01-29 06:15:00
12:35 AM,63.9,59.5,86,29.85,10.0,SSE,13.8,-,N/A,,Scattered Clouds,160,2013-01-29 06:35:00
12:55 AM,63.7,59.4,86,29.84,10.0,SSE,12.7,18.4,N/A,,Scattered Clouds,160,2013-01-29 06:55:00
1:15 AM,63.9,59.5,86,29.83,10.0,South,13.8,21.9,N/A,,Scattered Clouds,170,2013-01-29 07:15:00
1:35 AM,64.4,59.9,85,29.83,10.0,South,16.1,24.2,N/A,,Clear,170,2013-01-29 07:35:00
1:55 AM,64.4,59.5,84,29.82,10.0,South,16.1,21.9,N/A,,Clear,170,2013-01-29 07:55:00
2:15 AM,64.8,59.9,84,29.81,10.0,South,17.3,25.3,N/A,,Clear,170,2013-01-29 08:15:00
2:35 AM,64.6,59.5,84,29.81,10.0,South,18.4,26.5,N/A,,Clear,180,2013-01-29 08:35:00
2:55 AM,65.3,59.9,83,29.81,10.0,South,18.4,24.2,N/A,,Mostly Cloudy,180,2013-01-29 08:55:00
3:15 AM,65.3,59.9,83,29.79,10.0,South,16.1,23.0,N/A,,Scattered Clouds,180,2013-01-29 09:15:00
3:35 AM,65.3,59.9,83,29.79,10.0,South,15.0,20.7,N/A,,Clear,180,2013-01-29 09:35:00
3:55 AM,65.3,59.9,83,29.79,10.0,South,18.4,21.9,N/A,,Clear,180,2013-01-29 09:55:00
4:15 AM,65.5,59.9,82,29.78,10.0,South,18.4,24.2,N/A,,Clear,180,2013-01-29 10:15:00
4:35 AM,65.7,60.1,82,29.78,10.0,South,18.4,24.2,N/A,,Scattered Clouds,180,2013-01-29 10:35:00
4:55 AM,65.8,60.1,82,29.77,10.0,South,16.1,24.2,N/A,,Overcast,170,2013-01-29 10:55:00
5:15 AM,65.3,60.1,83,29.78,10.0,South,15.0,20.7,N/A,,Overcast,170,2013-01-29 11:15:00
5:35 AM,65.3,60.1,83,29.77,10.0,South,11.5,18.4,N/A,,Overcast,170,2013-01-29 11:35:00
5:55 AM,65.3,60.1,83,29.77,10.0,South,11.5,-,N/A,,Overcast,170,2013-01-29 11:55:00
6:50 AM,64.4,60.8,88,29.77,10.0,South,13.8,20.7,N/A,,Overcast,180,2013-01-29 12:50:00
7:50 AM,66.2,60.8,83,29.75,10.0,South,15.0,-,N/A,,Overcast,180,2013-01-29 13:50:00
8:50 AM,66.2,60.8,83,29.73,10.0,South,16.1,23.0,N/A,,Overcast,180,2013-01-29 14:50:00
9:50 AM,68.0,60.8,78,29.72,10.0,South,17.3,25.3,N/A,,Overcast,180,2013-01-29 15:50:00
10:50 AM,68.0,60.8,78,29.70,10.0,South,17.3,27.6,N/A,,Overcast,170,2013-01-29 16:50:00
11:50 AM,66.2,60.8,83,29.67,6.0,South,17.3,-,N/A,,Overcast,170,2013-01-29 17:50:00
12:50 PM,64.4,60.8,88,29.63,2.5,South,16.1,-,N/A,,Overcast,180,2013-01-29 18:50:00
1:50 PM,66.2,60.8,83,29.58,6.0,SSE,20.7,-,N/A,,Overcast,160,2013-01-29 19:50:00
2:50 PM,66.2,60.8,83,29.54,10.0,SSE,23.0,-,N/A,,Overcast,160,2013-01-29 20:50:00
7:50 PM,57.2,55.4,94,29.51,10.0,NW,5.8,-,N/A,Rain,Rain,320,2013-01-30 01:50:00
9:15 PM,56.7,54.3,92,29.55,5.0,WNW,6.9,-,0.03,Rain,Rain,290,2013-01-30 03:15:00
9:35 PM,56.8,54.5,92,29.52,5.0,NNW,4.6,-,0.08,Rain,Rain,340,2013-01-30 03:35:00
9:55 PM,56.7,54.5,92,29.50,10.0,Calm,Calm,-,0.12,Rain,Rain,0,2013-01-30 03:55:00
10:15 PM,56.3,53.8,91,29.49,10.0,Calm,Calm,-,0.03,Rain,Light Rain,0,2013-01-30 04:15:00
10:35 PM,56.3,53.8,91,29.48,7.0,Calm,Calm,-,0.07,Rain,Rain,0,2013-01-30 04:35:00
10:55 PM,55.8,53.6,92,29.47,10.0,East,4.6,-,0.11,Rain,Light Rain,100,2013-01-30 04:55:00
11:15 PM,55.6,53.4,92,29.45,10.0,ENE,5.8,-,0.03,Rain,Light Rain,70,2013-01-30 05:15:00
11:35 PM,55.6,53.2,92,29.45,10.0,ESE,5.8,-,0.07,Rain,Light Rain,110,2013-01-30 05:35:00
11:55 PM,55.4,53.1,92,29.47,10.0,ESE,8.1,-,0.10,Rain,Light Rain,120,2013-01-30 05:55:00